Regional Weather Roundup
Issued by NWS

Home | Current Version | Previous Version | Graphics & Text | Print | Product List | Glossary On
Versions: 1 2 3 4 5 6 7 8 9 10 11 12 13 14 15 16 17 18 19 20 21 22 23 24 25 26 27 28 29 30 31 32 33 34 35 36 37 38 39 40 41 42 43 44 45 46 47 48 49 50
000
ASUS44 KMEG 280010
RWRTN
TENNESSEE HOURLY STATE WEATHER ROUNDUP
NATIONAL WEATHER SERVICE MEMPHIS TN
700 PM CDT WED AUG 27 2014

TNZ002-004-019-021-049-052-054-088>092-280100-
WEST TENNESSEE

CITY           SKY/WX    TMP DP  RH WIND       PRES   REMARKS
MEMPHIS INTL   PTCLDY    89  64  43 SE8       30.00F HX  90
NWS MEMPHIS      N/A     87 N/A N/A MISG        N/A
JACKSON        CLEAR     83  74  74 CALM      30.02S
DYERSBURG      CLEAR     84  68  58 CALM      30.02S
UNION CITY     CLEAR     86  77  74 CALM      30.01R HX  97
PARIS          CLEAR     82  73  74 CALM      30.03S
LEXINGTON      CLEAR     86  70  58 W3        30.02R HX  90
SAVANNAH       CLEAR     88  73  62 CALM      30.02S HX  96
$$

TNZ008-025-027-028-033-062-065-066-280100-
NORTH MIDDLE TENNESSEE

CITY           SKY/WX    TMP DP  RH WIND       PRES   REMARKS
NASHVILLE      PTCLDY    86  69  56 E8        30.02F HX  90
DICKSON        CLEAR     82  75  78 CALM      30.03F
CLARKSVILLE    CLOUDY    85  74  69 CALM      30.02R HX  92
LEBANON        CLEAR     86  69  56 NE3       30.01F HX  90
SMYRNA         CLEAR     87  70  57 E3        30.03S HX  92
MURFREESBORO   CLEAR     86  67  52 E3        30.02F
COOKEVILLE     CLEAR     81  73  78 NE3       30.05R
GALLATIN       CLEAR     87  73  62 CALM      30.04S HX  94
CROSSVILLE     CLEAR     79  63  57 N5        30.09F
$$

TNZ061-075-076-078-094-096-097-280100-
SOUTH MIDDLE TENNESSEE

CITY           SKY/WX    TMP DP  RH WIND       PRES   REMARKS
LEWISBURG      CLEAR     83  67  58 CALM      30.02S
FAYETTEVILLE   PTCLDY    82  70  65 CALM      30.04S
TULLAHOMA      CLEAR     82  63  51 NE3       30.05F
WINCHESTER     CLEAR     82  68  61 CALM      30.04S
MCMINNVILLE    CLEAR     82  73  74 CALM      30.05S
COLUMBIA       CLEAR     88  73  62 W3        30.01S HX  96
SHELBYVILLE    CLEAR     82  68  61 E3        30.04S
$$

TNZ017-018-042-046-047-280100-
NORTHEAST TENNESSEE

CITY           SKY/WX    TMP DP  RH WIND       PRES   REMARKS
TRI CITIES     PTCLDY    77  60  55 CALM      30.06F
ELIZABETHTON   CLEAR     70  63  78 CALM      30.07S
$$

TNZ012-013-036-069-073-074-280100-
CENTRAL EAST TENNESSEE

CITY           SKY/WX    TMP DP  RH WIND       PRES   REMARKS
KNOXVILLE      MOCLDY    80  60  50 E3        30.03F
OAK RIDGE      CLEAR     81  64  56 CALM      30.05F
GATLINBURG     CLEAR     82  59  44 CALM      30.04S
MORRISTOWN     CLEAR     82  64  54 CALM      30.07R
$$

TNZ083-085-099-280100-
SOUTHEAST TENNESSEE

CITY           SKY/WX    TMP DP  RH WIND       PRES   REMARKS
CHATTANOOGA    PTCLDY    85  61  44 E6        30.03S
$$

SKY/WX REPORTED AS FAIR MEANS FEW OR NO CLOUDS BELOW
12 THOUSAND FEET.



USA.gov is the U.S. government's official web portal to all federal, state and local government web resources and services.